This demonstration page uses our WeatherBlox Daily Observations layout. Learn more.

Left ArrowRight Arrow

39.01783, -85.05884

Hourly Observations for September 6, 2017

Temp ( °F °C ) Dew Point ( °F °C ) Humidity (%) Winds ( mph kmh ) Pressure ( in mb ) Visibility ( mi km ) Precip ( " mm )
12:52 am 00:52 Clear 54 12.2 50 10 87 87 WSW 3 6 29.92 1013 10 16 0.00 0.00
1:52 am 01:52 Clear 55 12.8 51 10.6 87 87 Calm 29.92 1013 10 16 0.00 0.00
2:52 am 02:52 Clear 53 11.7 50 10 89 89 W 3 6 29.92 1013 10 16 0.00 0.00
3:52 am 03:52 Clear 52 11.1 50 10 93 93 W 6 9 29.92 1013 10 16 0.00 0.00
4:52 am 04:52 Clear 50 10 50 10 100 100 Calm 29.92 1013 10 16 0.00 0.00
5:52 am 05:52 Clear 51 10.6 49 9.4 92 92 WNW 7 11 29.92 1013 10 16 0.00 0.00
6:52 am 06:52 Mostly Clear 52 11.1 50 10 93 93 WNW 7 11 29.93 1014 10 16 0.00 0.00
7:52 am 07:52 Mostly Sunny 52 11.1 50 10 93 93 WNW 5 7 29.94 1014 10 16 0.00 0.00
8:52 am 08:52 Mostly Sunny 55 12.8 52 11.1 90 90 W 5 7 29.95 1014 10 16 0.00 0.00
9:52 am 09:52 Sunny 60 15.6 49 9.4 67 67 NW 6 9 29.96 1015 10 16 0.00 0.00
10:52 am 10:52 Mostly Sunny 63 17.2 50 10 63 63 NW 10 17 29.97 1015 10 16 0.00 0.00
11:52 am 11:52 Partly Cloudy 65 18.3 46 7.8 51 51 NW 9 15 29.97 1015 10 16 0.00 0.00
12:52 pm 12:52 Mostly Cloudy 67 19.4 47 8.3 49 49 WNW 10 17 29.96 1015 10 16 0.00 0.00
1:52 pm 13:52 Mostly Cloudy 66 18.9 47 8.3 50 50 W 10 17 29.97 1015 10 16 0.00 0.00
2:52 pm 14:52 Cloudy 66 18.9 46 7.8 49 49 W 13 20 29.96 1015 10 16 0.00 0.00
3:52 pm 15:52 Partly Cloudy 66 18.9 46 7.8 49 49 WNW 12 19 29.95 1014 10 16 0.00 0.00
4:52 pm 16:52 Mostly Cloudy 66 18.9 48 8.9 52 52 W 10 17 29.96 1014 10 16 0.00 0.00
5:52 pm 17:52 Mostly Cloudy 65 18.3 49 9.4 56 56 W 12 19 29.95 1014 10 16 0.00 0.00
6:52 pm 18:52 Mostly Cloudy 62 16.7 50 10 65 65 W 9 15 29.97 1015 10 16 0.00 0.00
7:52 pm 19:52 Mostly Cloudy 60 15.6 50 10 70 70 W 8 13 29.97 1015 10 16 0.00 0.00
8:52 pm 20:52 Mostly Cloudy 57 13.9 50 10 78 78 W 9 15 29.99 1016 10 16 0.00 0.00
9:52 pm 21:52 Mostly Clear 56 13.3 49 9.4 77 77 WNW 8 13 30.01 1016 10 16 0.00 0.00
10:52 pm 22:52 Partly Cloudy 53 11.7 49 9.4 86 86 W 5 7 30.02 1017 10 16 0.00 0.00
11:52 pm 23:52 Mostly Clear 51 10.6 49 9.4 92 92 Calm 30.02 1017 10 16 0.00 0.00

Powered by AerisWeather